Wind_Speed
21 20 20 20 20 20 19 18 18 17 16 16 16 16 15 15 15 14 14 14 15 16 15 13 12 12 10 8 7 6 5 5 4 4 4 5 5 4 3 2 2 2 2 4 6 7 6 5 6 8 9 8 10 11 10 15 14 12 12 11 11 11
22 21 21 21 21 20 18 18 18 17 16 16 16 16 15 15 15 15 14 15 15 15 14 13 13 11 9 7 6 5 5 5 4 4 4 4 4 4 3 3 3 2 2 3 6 8 6 6 6 8 9 9 9 10 9 14 12 10 10 10 11 10
22 21 21 22 22 21 19 18 19 18 17 17 17 16 16 17 16 15 15 15 15 14 14 13 12 10 8 7 6 5 5 4 4 4 3 3 3 4 3 3 3 3 3 3 5 7 6 6 6 8 9 9 8 9 9 12 9 9 9 10 10 10
22 21 21 22 22 21 20 19 19 19 19 19 18 16 16 17 15 14 15 15 15 14 13 13 12 10 8 7 6 5 4 4 3 3 2 2 2 3 4 4 4 5 4 5 7 7 7 6 5 7 9 8 7 6 7 10 8 9 10 10 10 12
23 22 22 23 24 22 21 21 20 20 20 19 18 17 16 15 14 14 15 14 14 14 13 13 12 10 8 6 6 5 5 4 4 3 3 3 3 1 2 3 5 5 4 3 3 3 4 4 4 6 8 9 6 3 4 9 7 9 10 10 11 12
23 22 21 22 24 22 21 21 20 20 20 18 17 17 16 14 14 15 14 13 13 14 13 13 13 11 10 8 6 6 6 6 6 5 5 4 3 2 2 2 4 4 2 2 4 5 5 5 7 7 6 7 5 2 6 10 7 8 9 9 11 12
22 22 20 20 23 22 21 20 20 20 20 19 19 18 17 16 14 14 13 13 14 15 15 13 13 12 10 8 8 7 8 8 6 6 5 4 4 3 3 2 3 3 2 4 6 8 9 5 8 9 7 8 6 2 9 12 8 8 7 8 11 12
23 22 21 20 23 23 20 20 21 22 20 20 20 19 18 16 15 14 12 13 14 13 12 12 12 11 10 9 10 9 9 9 7 6 6 6 5 5 6 3 3 4 3 4 5 7 8 2 6 9 8 10 9 5 9 12 10 8 6 9 12 13
23 23 22 21 23 23 21 20 22 22 21 20 20 19 17 15 15 13 10 11 12 11 10 11 11 11 11 10 11 11 10 10 8 6 6 7 5 4 6 5 4 4 5 5 4 6 8 6 4 5 4 7 8 8 11 11 9 8 8 10 12 13
24 24 24 22 22 23 20 21 23 21 21 21 19 17 15 14 14 13 10 10 11 11 11 12 12 12 12 11 12 11 10 10 9 7 5 7 5 2 3 5 4 4 5 3 3 6 9 11 10 7 3 1 4 9 11 9 9 9 10 10 11 13
26 25 23 23 23 23 21 22 22 20 20 19 18 16 14 13 14 12 11 11 11 12 12 12 12 13 11 11 11 10 9 9 9 8 5 5 4 2 2 4 3 4 3 1 3 6 9 15 18 8 4 4 6 10 10 10 10 10 9 10 12 13
25 24 23 24 24 23 22 21 19 19 19 18 18 16 13 13 14 13 12 13 11 10 11 11 12 12 10 10 9 8 7 7 7 6 5 4 3 2 2 3 2 3 3 2 2 5 9 14 20 13 7 8 9 10 11 11 11 9 9 10 12 12
24 23 23 23 22 22 20 19 18 18 19 19 18 16 14 13 14 12 12 12 10 9 11 11 12 12 11 10 8 8 7 5 5 4 4 4 2 2 4 4 2 2 2 1 1 5 8 11 18 15 9 6 8 9 11 13 11 9 9 10 11 11
25 24 22 21 21 20 19 18 18 19 20 20 18 16 14 13 12 10 10 10 9 10 11 12 13 13 12 11 9 9 9 6 6 5 4 4 3 3 4 4 3 2 1 1 1 5 7 10 15 16 11 6 7 8 10 13 12 11 10 11 11 11
26 25 23 22 21 20 20 19 19 20 21 18 16 14 12 11 11 10 10 9 9 10 11 12 13 12 11 12 10 10 9 8 7 7 6 5 5 5 5 5 5 3 2 3 3 4 6 10 15 17 14 11 10 9 9 11 13 14 13 13 13 12
25 25 25 23 21 20 20 20 19 19 19 16 13 11 10 11 11 10 10 8 8 10 10 11 10 9 9 11 11 9 8 7 8 9 7 6 6 5 6 6 5 4 2 2 3 4 5 9 16 18 15 13 13 12 12 12 15 16 15 14 14 13
25 25 26 24 21 19 18 19 20 18 16 14 12 12 11 11 11 10 10 8 8 9 9 9 8 8 8 9 9 8 7 7 8 10 8 6 6 5 6 6 4 4 3 3 3 4 6 9 14 18 15 14 15 15 16 16 16 17 17 15 13 12
26 26 26 24 21 18 18 18 17 15 14 13 13 13 13 11 10 10 10 8 7 9 8 7 7 7 8 8 9 8 8 8 10 10 8 6 5 6 6 6 5 4 3 3 3 3 4 6 13 17 16 15 15 15 15 16 16 15 16 16 13 10
25 24 24 24 22 20 20 18 15 14 14 14 14 14 14 12 11 11 10 8 7 8 7 6 6 7 8 8 9 9 8 8 11 10 7 6 6 7 7 6 6 4 5 4 3 3 4 6 12 16 15 15 15 14 14 14 13 12 14 15 12 10
24 24 25 24 23 22 22 19 17 17 17 16 16 14 14 14 13 12 10 8 7 6 6 6 6 7 6 6 8 9 8 9 11 11 9 9 8 7 7 6 6 5 6 6 5 5 6 9 14 15 14 14 14 13 13 13 12 11 13 13 12 12
24 24 26 25 24 23 23 22 21 21 19 17 15 15 16 15 14 12 10 9 7 5 4 5 5 6 5 6 7 7 7 8 9 9 8 8 7 6 6 7 6 6 7 8 9 7 8 12 15 13 11 12 13 12 11 12 14 12 11 11 11 12
26 25 25 23 22 22 22 22 21 21 19 17 16 17 18 17 14 12 11 10 7 4 4 4 3 4 5 5 5 6 7 6 7 7 6 6 6 5 6 7 7 8 8 10 10 8 8 9 10 11 9 10 11 12 13 12 11 7 8 9 10 11
27 26 25 23 22 22 21 18 18 19 18 18 17 17 16 15 13 12 11 10 8 5 4 4 4 3 4 4 4 6 7 7 8 8 7 7 7 6 8 8 7 9 10 11 10 8 8 6 8 11 8 5 5 7 10 12 10 5 6 7 9 10
26 26 26 24 24 23 19 16 18 19 17 18 17 15 13 11 11 12 11 10 8 6 5 4 5 6 4 3 4 5 7 8 9 9 9 8 8 8 9 9 9 9 10 12 11 9 8 7 8 11 6 2 3 4 4 7 10 4 5 6 7 9
24 24 24 23 23 21 20 20 22 22 20 20 18 16 14 12 13 13 12 11 10 9 6 5 5 6 6 5 4 4 6 8 9 9 9 8 8 8 8 9 10 9 9 10 10 11 9 7 8 7 4 4 3 2 2 9 10 3 2 4 5 9
22 22 22 21 20 21 22 24 25 24 23 22 19 17 16 15 14 14 13 11 11 10 9 9 9 8 7 5 4 4 4 6 7 7 7 7 7 7 8 9 10 9 8 8 9 12 12 10 8 5 4 4 1 2 8 12 8 1 2 4 5 9
24 23 22 20 20 22 23 23 22 22 22 20 19 16 14 14 15 15 14 12 12 10 9 9 9 8 6 4 4 3 3 4 5 6 6 6 6 6 7 9 10 10 9 8 9 12 14 13 11 6 4 3 2 6 13 13 8 5 4 3 5 9
29 26 24 24 24 23 23 22 20 21 19 16 16 15 13 14 15 15 14 12 11 9 8 8 6 6 7 6 5 4 3 2 2 6 5 3 5 6 6 7 9 10 9 8 9 10 14 15 12 8 7 6 7 10 13 13 14 13 7 3 4 6
31 30 28 28 27 25 23 22 21 21 19 16 16 16 15 15 15 13 11 11 11 10 10 8 7 7 8 7 6 5 5 5 2 7 7 3 4 5 6 7 8 9 8 7 8 8 11 15 13 11 10 10 11 12 13 14 17 17 11 7 5 4
34 33 32 31 30 27 25 24 23 23 21 20 19 17 15 14 13 11 10 11 11 10 10 9 7 8 8 7 7 6 6 7 7 9 8 6 6 5 7 8 8 10 8 7 8 9 11 15 13 13 14 14 14 14 12 11 14 16 11 8 7 6
34 35 35 34 32 29 27 26 25 25 24 22 20 17 15 14 13 11 11 11 10 8 9 9 7 7 7 7 7 7 7 9 11 10 8 6 5 5 8 10 9 10 10 8 10 11 12 14 13 15 16 15 17 16 13 11 14 17 13 10 8 6
26 31 35 34 32 30 28 27 26 26 26 23 21 18 17 16 14 12 11 11 10 10 10 9 7 7 7 6 6 8 8 9 11 10 8 7 6 6 8 10 10 10 11 10 11 12 13 13 13 15 15 15 16 16 15 15 17 18 17 17 14 8
22 27 32 32 31 30 28 27 26 27 26 24 22 20 18 17 15 13 12 12 13 12 12 11 10 8 7 6 6 7 8 9 10 10 9 8 8 8 8 9 10 11 13 13 12 12 13 13 12 12 13 14 16 16 15 17 18 19 20 22 19 12
21 23 29 30 30 29 28 27 26 26 25 24 23 20 18 17 16 14 13 13 13 13 13 13 12 10 8 7 8 8 8 9 9 10 10 8 9 10 10 10 10 11 14 15 14 13 14 14 12 12 13 14 15 16 17 18 20 21 20 21 21 17
23 22 25 26 26 27 26 24 24 24 24 23 22 20 18 17 17 15 13 12 13 14 15 16 14 12 9 9 11 11 9 8 10 11 11 10 12 13 11 11 12 14 15 16 14 14 14 14 13 12 12 14 15 16 17 19 21 20 19 20 22 22
24 23 24 23 23 23 22 21 21 22 22 21 20 20 19 17 17 15 12 12 15 17 18 16 14 13 11 10 12 11 9 10 10 9 10 12 14 13 12 14 15 15 16 15 14 13 12 12 12 11 10 12 14 15 16 16 17 17 17 19 19 22
24 23 23 21 20 20 18 18 19 19 19 20 20 20 20 18 17 15 13 14 17 18 17 15 13 13 12 11 12 11 11 11 9 9 11 12 12 12 12 14 15 15 15 15 15 15 13 14 16 16 15 14 14 15 13 12 13 14 14 15 16 20
Wind_Direction
152 157 156 149 147 146 145 145 139 136 134 133 130 129 134 139 143 143 142 142 138 134 132 132 137 139 136 127 124 129 132 136 139 140 140 136 122 112 109 103 117 134 175 182 183 180 170 165 155 161 162 139 112 77 92 138 137 125 114 105 105 103
154 158 155 150 148 146 146 141 134 134 134 131 132 137 144 149 149 146 147 147 142 142 140 140 140 134 127 127 133 138 146 148 147 151 149 143 131 120 108 93 108 129 166 178 183 182 176 169 159 168 167 150 121 81 110 145 131 124 117 108 109 107
160 161 158 153 152 148 145 139 134 135 133 133 141 149 152 153 152 149 151 151 150 149 145 142 136 127 127 135 141 147 156 159 162 169 167 162 148 133 119 104 117 137 156 158 165 170 169 163 161 176 175 159 126 89 126 149 132 129 123 112 113 116
167 166 163 159 157 152 145 139 137 136 136 143 152 154 154 155 156 155 156 158 155 151 148 143 134 132 137 140 147 156 163 173 189 189 183 196 189 153 134 116 120 125 125 126 134 141 148 152 153 176 188 174 138 98 134 152 139 133 123 113 118 124
176 172 171 165 158 153 143 138 139 142 149 154 157 157 156 160 164 163 162 163 157 155 155 147 143 146 146 143 155 166 173 191 206 207 206 220 232 209 150 128 131 129 115 109 124 135 149 169 184 184 195 190 160 93 149 161 147 132 120 116 127 131
180 177 175 167 159 152 140 140 148 152 159 158 160 161 159 165 170 167 168 169 160 160 159 150 152 154 148 148 161 173 184 202 209 207 213 225 238 258 240 156 145 141 127 304 297 300 299 261 228 204 194 191 180 84 139 162 158 137 127 121 133 139
180 177 174 167 160 149 139 151 160 159 163 163 165 167 165 168 173 171 174 179 170 165 161 154 156 156 156 164 176 185 195 211 214 211 221 243 254 248 246 215 165 159 180 278 295 308 315 284 213 203 183 171 185 152 141 156 163 150 138 133 141 147
178 175 170 163 156 149 151 165 165 163 168 168 170 173 172 172 176 178 180 183 177 171 168 163 163 164 174 184 192 199 206 217 226 230 238 248 255 243 234 231 202 189 213 262 300 331 347 7 189 200 188 179 194 190 148 150 157 154 147 147 148 150
175 172 164 155 152 159 168 171 168 170 173 172 176 177 175 176 180 185 186 179 173 175 179 174 176 181 188 195 200 207 213 222 233 243 250 240 242 244 222 219 218 214 240 269 317 359 22 47 113 150 167 195 189 139 128 140 150 155 153 153 151 152
171 168 161 154 157 170 177 173 171 175 175 174 178 176 174 180 184 187 182 168 165 174 180 179 184 191 197 204 205 211 221 228 234 239 249 230 231 272 220 211 223 232 254 273 346 15 34 44 61 102 93 39 162 135 139 154 149 155 154 151 153 155
168 167 162 159 164 173 176 173 172 175 176 173 175 175 172 177 181 180 174 168 167 172 179 183 190 196 200 205 209 218 222 221 226 234 250 232 234 285 212 201 226 234 245 282 354 16 38 48 56 91 127 86 159 173 177 166 144 153 153 149 156 156
169 168 165 166 170 171 171 170 168 169 172 170 171 174 169 171 177 178 176 179 180 177 184 192 199 204 205 206 210 214 211 214 220 229 250 246 242 248 165 171 204 221 227 292 328 27 41 56 66 89 124 108 138 160 171 159 141 154 152 148 157 157
165 167 167 172 174 170 167 167 164 162 164 164 166 170 170 175 183 184 183 187 190 186 190 201 208 212 214 212 209 205 202 216 225 229 247 250 242 184 138 137 171 216 225 284 314 55 47 63 77 93 113 121 134 137 161 162 145 150 149 145 153 154
159 163 168 173 174 167 166 168 163 157 156 160 164 171 176 179 182 180 177 182 186 187 194 206 212 214 219 220 215 211 200 198 222 236 241 245 234 175 144 140 177 211 160 107 91 72 62 74 84 95 102 128 156 139 155 164 156 155 151 143 143 146
158 160 163 171 172 164 165 168 162 156 157 163 171 176 175 168 164 160 163 175 181 188 199 210 215 216 223 227 224 224 212 202 221 238 240 243 228 186 168 174 195 210 129 92 95 90 84 87 94 102 105 119 137 131 138 158 162 160 155 148 144 146
158 157 158 166 169 160 159 160 157 159 162 168 171 168 161 155 152 152 161 176 186 194 205 214 221 221 225 227 224 229 227 217 226 239 246 244 225 191 179 192 206 207 158 99 99 106 112 106 103 106 110 120 133 136 136 151 168 166 164 161 155 152
153 154 155 162 165 161 159 158 156 158 161 162 162 160 153 150 150 156 166 174 185 193 203 215 221 222 229 230 225 227 225 224 233 242 250 242 223 198 188 199 196 183 161 130 115 115 128 120 112 114 118 125 137 142 139 149 167 171 171 171 169 162
147 151 154 160 165 164 164 162 155 153 151 147 149 149 141 141 146 153 167 175 177 183 196 210 210 216 234 241 237 232 229 232 234 239 244 229 212 200 193 195 189 171 135 131 131 139 154 132 120 120 122 127 134 138 138 142 154 169 178 179 177 170
145 151 155 159 163 164 165 161 152 147 143 138 139 139 139 146 148 151 166 176 171 176 187 191 197 212 231 241 236 233 232 226 222 224 221 207 201 200 191 189 196 170 127 119 121 149 169 153 134 126 126 130 133 135 134 133 139 160 175 178 175 169
147 152 155 159 160 159 160 154 146 144 142 142 142 141 147 152 151 153 160 165 163 164 169 173 191 208 225 234 226 228 230 218 215 213 206 205 206 202 188 182 188 169 141 123 118 144 158 150 135 125 124 129 137 142 132 128 138 156 166 167 165 165
151 155 157 159 157 154 153 151 147 147 143 143 145 143 146 149 150 149 142 139 145 143 156 175 195 207 223 229 214 217 218 209 210 208 207 210 206 200 180 169 167 158 152 138 133 146 159 152 132 119 121 119 124 128 120 132 146 153 158 158 163 168
155 160 160 157 154 151 150 149 147 145 139 136 142 142 140 141 140 135 127 122 125 130 158 180 194 208 221 222 212 214 209 195 190 192 205 207 197 189 170 169 166 152 150 149 148 152 165 163 133 121 123 113 107 101 96 111 124 134 147 151 161 164
158 158 157 154 154 155 153 150 144 141 138 136 141 142 138 138 136 131 128 128 129 132 142 145 142 163 201 213 212 211 207 200 192 192 199 199 197 188 171 174 171 162 158 149 148 160 181 187 141 125 119 110 109 100 91 87 88 117 158 147 149 151
158 155 154 155 158 159 156 151 144 141 140 139 136 134 130 132 136 134 133 139 142 140 136 127 120 122 139 180 196 204 207 205 203 201 199 200 206 201 187 183 177 176 171 155 149 164 191 206 161 137 118 98 106 107 106 97 95 119 166 142 143 148
159 155 155 159 162 162 155 145 139 134 131 131 127 127 129 134 140 137 137 142 138 135 141 147 141 126 116 121 143 180 201 200 202 207 207 209 213 207 198 190 186 189 184 170 162 165 183 203 172 143 125 128 107 80 144 130 117 105 146 119 125 143
158 156 157 161 163 162 151 140 136 133 131 130 128 132 141 148 149 144 140 139 136 134 134 137 139 130 114 108 125 149 179 188 190 198 207 215 213 205 200 195 196 200 194 188 178 168 175 188 179 157 146 150 120 159 156 140 125 114 142 98 104 132
159 158 160 164 164 161 149 139 137 138 137 136 134 139 150 153 151 146 142 138 141 143 132 124 130 133 131 132 137 146 169 181 187 188 193 205 204 198 195 198 207 209 197 191 188 173 168 177 183 182 176 162 99 144 154 146 134 137 133 93 114 132
160 159 161 164 165 162 152 144 141 139 138 137 137 142 146 147 146 145 144 140 141 146 136 125 127 137 141 143 144 138 126 124 215 195 176 178 191 192 198 201 203 205 201 191 186 175 166 171 179 175 162 138 115 130 141 139 137 134 125 105 119 129
162 160 161 163 164 163 156 151 149 146 141 137 140 143 141 141 142 140 140 141 142 140 135 132 134 138 143 148 156 154 123 78 99 176 169 167 175 180 195 192 183 188 200 194 181 180 174 172 177 178 164 141 130 129 125 125 131 131 123 121 123 120
165 163 162 165 165 162 158 158 158 154 147 141 143 146 143 142 143 141 142 148 149 141 135 138 137 139 147 142 139 152 133 90 98 140 150 159 160 158 170 169 171 179 191 198 183 176 175 172 178 184 172 157 149 142 129 121 128 130 122 113 119 131
168 165 165 168 167 164 164 167 165 157 149 147 150 152 150 149 151 153 151 149 151 151 152 152 135 127 143 138 121 132 134 111 109 119 125 137 140 138 150 150 154 165 171 183 177 167 169 171 178 184 179 171 164 159 151 143 140 137 130 121 124 132
168 167 167 170 169 166 168 170 166 156 151 153 157 158 158 159 161 164 161 155 157 157 157 160 151 130 129 137 131 129 133 127 117 112 119 132 125 120 132 138 145 154 158 168 169 164 162 162 170 176 177 176 172 170 164 154 146 139 139 144 142 139
170 169 169 171 170 169 170 168 161 155 156 159 161 163 164 164 166 171 171 167 165 159 152 155 159 148 134 143 154 143 136 132 121 111 118 130 127 124 131 140 147 150 151 157 160 156 151 150 158 164 164 167 172 175 172 163 151 142 145 151 147 141
172 173 172 173 172 172 171 167 160 156 160 162 163 165 166 166 170 176 177 175 172 167 159 154 151 147 144 148 149 144 138 137 132 115 111 127 131 126 131 140 145 148 148 150 148 141 138 139 141 144 147 155 166 170 170 169 161 152 155 159 156 152
173 177 177 175 176 175 173 170 161 156 159 163 163 164 165 168 173 177 180 181 180 173 160 152 146 143 147 147 141 139 135 140 142 120 105 122 131 125 128 132 134 138 141 143 141 135 137 141 141 139 139 143 152 157 160 166 168 165 162 162 164 163
175 181 182 182 182 179 179 176 163 156 161 164 162 163 167 171 173 175 177 177 176 169 159 154 151 150 152 150 147 147 139 137 142 126 112 122 128 127 131 132 130 131 135 140 140 138 139 145 149 145 136 133 136 140 145 156 167 174 171 169 176 175
176 183 186 191 188 184 187 180 165 161 164 166 166 167 170 170 168 169 169 168 167 163 159 158 154 153 154 150 146 149 146 141 136 124 120 124 128 131 136 138 137 134 137 141 139 134 129 131 133 130 126 127 129 129 130 136 150 164 169 169 182 185
Height
795 797 799 801 804 806 808 810 812 814 815 817 817 818 819 819 820 820 821 821 821 822 823 824 825 826 827 828 829 830 830 830 831 831 832 833 833 834 834 834 835 835 836 836 837 838 838 839 839 839 840 841 842 843 843 843 843 844 843 844 845 845
796 798 800 802 805 807 809 811 814 816 817 818 818 819 819 819 820 820 821 821 821 822 823 824 825 825 826 827 828 829 830 830 831 831 832 833 834 834 835 835 835 835 836 836 837 838 839 839 840 840 840 841 842 844 844 844 844 844 844 845 845 846
796 798 800 802 805 807 810 812 815 817 818 819 818 818 818 819 820 820 821 821 821 822 823 824 824 824 825 827 828 829 830 830 831 832 832 833 834 835 835 836 835 836 836 836 837 838 839 840 840 840 841 842 843 844 845 845 845 844 845 846 846 847
797 799 800 803 805 808 811 813 815 817 818 818 817 818 819 820 820 821 821 821 821 822 823 823 824 824 825 827 828 830 830 831 832 832 833 834 835 836 836 836 836 836 837 837 838 838 840 840 841 842 842 842 843 845 846 846 845 845 846 846 847 848
796 798 800 802 805 808 811 814 815 816 816 816 817 818 820 820 821 821 821 821 822 823 823 823 824 825 826 828 829 830 830 831 832 833 834 834 835 836 837 837 836 837 838 839 839 840 840 841 842 842 843 844 845 846 847 847 846 846 846 847 847 848
796 798 800 803 806 809 812 814 814 814 815 816 817 818 819 820 820 822 822 822 823 823 824 824 824 825 826 828 829 830 830 831 832 833 834 835 836 836 837 837 837 837 838 839 840 840 841 841 842 842 844 845 846 847 848 849 848 847 847 847 848 848
796 799 801 805 807 809 812 812 812 814 816 816 817 817 819 820 820 822 823 823 823 824 824 825 825 826 827 828 828 829 830 830 831 833 834 835 836 836 837 837 837 837 838 839 839 840 840 840 841 842 844 845 845 847 848 849 849 848 848 848 848 849
796 800 803 806 808 809 810 810 811 813 815 815 816 817 819 820 821 822 823 824 824 824 825 826 827 827 828 828 829 829 829 830 831 833 833 835 836 836 837 837 837 837 838 839 839 839 839 839 841 843 843 844 844 846 848 849 849 849 849 849 849 850
797 800 804 806 808 808 807 808 810 812 813 815 816 818 820 821 822 823 824 825 825 825 826 827 827 828 828 828 829 829 829 830 831 833 833 835 836 836 836 837 837 838 839 839 839 839 839 840 841 842 843 844 846 847 848 849 850 849 849 849 850 850
797 800 803 806 807 806 805 807 810 812 814 816 817 819 820 821 822 824 825 825 825 826 826 827 827 827 828 828 828 829 829 831 832 833 834 835 836 836 836 837 838 838 839 839 839 840 839 839 839 840 843 845 848 850 849 849 850 850 850 850 850 851
797 799 802 804 805 805 806 808 810 812 814 816 818 820 821 822 823 824 825 825 826 826 827 827 827 827 827 828 828 828 829 831 832 833 834 835 836 836 836 837 838 839 840 840 840 840 840 839 839 841 843 844 847 849 849 849 851 851 850 850 850 851
797 799 802 803 804 805 806 809 810 812 814 816 818 820 821 822 823 824 825 825 826 827 827 827 826 827 827 828 828 829 829 831 832 833 834 835 836 836 837 838 839 839 840 840 840 840 840 840 840 842 843 843 845 847 849 851 852 852 852 851 851 852
797 800 802 802 803 805 806 808 811 813 815 817 819 820 821 822 823 824 825 826 827 827 827 827 826 827 827 828 828 829 830 831 832 833 834 835 836 836 837 838 838 839 839 840 840 841 841 841 841 841 842 843 845 847 848 850 852 853 853 852 852 852
798 800 801 802 803 805 807 810 812 814 816 818 819 820 821 822 823 824 825 826 827 827 827 827 826 827 827 828 829 829 830 831 832 833 835 836 836 837 837 838 838 838 839 840 840 841 841 842 842 841 841 842 843 845 847 848 851 853 853 852 852 852
799 801 802 803 804 806 809 812 814 815 817 818 819 820 821 822 823 824 825 826 827 827 827 826 827 827 827 828 829 829 830 831 832 833 835 836 837 837 838 838 838 838 840 840 840 840 841 842 842 841 842 842 843 844 845 847 851 853 852 851 851 851
800 802 803 804 805 808 811 813 815 816 817 818 819 820 821 822 823 824 825 825 826 826 826 825 826 827 827 827 828 829 830 831 833 834 835 836 837 838 838 838 838 839 840 840 840 840 841 842 842 842 842 842 843 844 845 847 851 852 852 851 851 851
801 803 804 806 806 808 811 814 815 816 817 818 818 819 820 822 822 824 824 825 825 825 825 825 826 826 826 826 827 828 830 831 833 834 835 836 837 838 838 839 839 839 839 840 840 841 841 842 842 843 843 842 842 843 844 847 851 852 852 851 851 851
803 804 806 807 807 809 811 813 815 816 816 817 818 819 820 821 822 823 824 824 824 824 824 824 825 825 824 825 826 828 830 831 833 834 835 836 837 838 838 839 839 839 839 840 840 840 841 842 843 844 843 842 842 843 845 849 852 853 853 852 852 852
803 805 807 808 808 809 811 813 814 815 816 817 818 818 819 820 821 823 823 824 824 823 824 824 824 825 824 825 826 827 830 831 833 834 835 836 837 838 838 838 838 838 839 839 839 840 840 842 843 844 844 843 843 844 848 851 854 857 856 854 853 853
802 804 807 808 808 810 811 813 813 814 815 816 817 818 819 820 821 822 823 823 823 823 824 824 824 824 824 825 826 827 829 831 833 834 835 836 837 837 838 838 838 838 839 839 839 840 840 841 843 845 846 846 846 847 851 854 856 858 856 854 854 854
801 804 805 807 809 810 810 811 812 813 814 815 816 817 818 820 821 822 823 823 822 823 823 824 824 824 825 825 826 827 828 830 832 833 835 836 837 838 838 838 838 838 839 839 839 840 840 841 842 844 846 847 848 850 853 855 855 856 855 854 854 854
800 803 804 806 807 808 808 809 809 811 812 814 815 816 818 819 820 821 821 822 822 822 823 824 825 825 825 825 826 827 828 830 831 833 834 835 836 838 838 838 838 839 839 840 839 839 839 840 841 842 844 846 848 851 853 853 854 854 854 854 854 854
800 801 803 805 805 806 807 807 808 809 811 813 814 815 817 818 819 819 820 821 822 823 823 824 825 825 825 826 827 828 829 830 831 832 833 834 836 837 838 838 838 839 839 840 839 839 838 838 839 841 842 845 847 850 853 854 853 851 852 854 855 855
799 801 802 804 805 805 806 806 808 809 810 812 813 815 815 817 818 819 820 822 823 823 823 824 824 825 826 827 828 829 830 831 831 832 832 833 834 836 837 838 838 839 839 839 839 838 837 837 838 840 841 844 846 849 853 855 854 851 851 853 855 855
800 801 802 804 804 805 805 806 807 808 810 811 813 814 815 816 818 819 821 822 822 823 823 823 824 825 826 827 829 830 831 831 832 832 832 832 833 835 836 837 838 838 839 838 838 838 837 837 838 839 840 842 845 848 851 854 854 853 852 853 855 856
802 802 803 804 804 805 805 805 806 807 808 810 812 814 816 817 818 819 820 821 822 823 824 824 824 826 827 828 829 830 831 831 831 831 831 831 832 833 835 836 837 838 838 838 838 838 838 838 838 839 839 840 841 844 846 849 852 855 855 855 855 856
802 802 802 803 803 804 804 805 806 807 809 811 812 814 816 817 818 819 820 821 822 823 824 825 825 826 827 828 829 830 830 831 831 831 831 831 831 832 834 835 836 837 838 838 838 838 838 839 838 839 839 839 840 841 843 845 848 852 856 858 857 857
799 800 800 801 802 802 803 804 805 807 809 812 813 815 817 818 819 819 820 821 822 823 824 825 826 827 828 829 829 829 830 830 830 831 831 831 831 832 833 835 836 837 837 838 838 838 839 839 839 839 839 840 841 842 843 845 846 848 852 857 859 858
796 797 797 798 799 800 801 802 805 807 809 811 814 816 818 819 820 820 820 820 821 822 824 825 827 828 828 829 829 829 830 829 829 830 831 831 831 832 833 834 835 836 836 837 838 838 838 839 840 840 840 841 842 843 844 845 847 848 850 854 858 858
793 794 794 795 796 798 800 802 804 805 807 810 813 815 817 819 819 819 819 820 821 822 824 825 827 828 828 829 829 829 829 830 829 830 831 832 831 832 833 834 836 836 836 837 837 838 839 840 840 840 841 841 842 843 845 846 848 850 850 852 855 857
792 793 793 794 795 797 799 801 803 805 807 809 812 814 816 818 819 819 819 820 821 822 823 825 826 827 828 829 829 829 830 830 830 831 832 832 832 833 834 835 836 837 838 837 837 838 839 840 840 840 841 842 842 843 844 845 847 849 850 852 854 856
795 795 794 795 796 797 799 801 802 804 806 808 810 813 815 817 819 819 819 820 820 821 823 825 826 827 828 829 829 830 830 831 831 832 832 833 834 834 835 836 836 838 838 838 838 839 839 839 839 840 841 842 842 843 843 845 847 848 850 851 853 855
796 797 796 796 797 798 800 801 803 804 806 808 809 812 815 817 819 820 820 820 820 821 823 824 826 827 828 829 830 831 831 832 832 833 833 834 835 835 836 836 837 838 838 838 839 839 839 839 839 840 840 841 841 842 844 845 847 848 850 852 853 854
797 797 797 798 798 799 801 802 803 804 806 808 809 812 815 817 819 820 821 821 821 821 822 824 826 827 828 829 830 831 832 833 833 834 834 835 836 836 837 838 838 839 839 839 839 839 839 839 840 840 840 840 841 842 844 845 847 848 850 852 852 853
796 797 797 798 799 800 802 804 804 805 807 809 810 813 816 818 820 821 822 822 822 822 823 824 826 827 829 830 831 832 833 834 834 835 835 836 837 838 839 839 839 840 840 840 840 840 840 840 840 840 841 841 842 842 844 845 847 848 850 851 852 852
796 797 798 799 800 801 803 805 805 806 808 810 811 814 816 818 820 821 822 823 823 823 823 824 826 828 829 830 831 832 834 835 835 835 836 837 839 840 840 841 841 841 841 841 841 840 840 840 840 841 841 842 842 843 844 845 847 849 850 851 852 853
793 796 798 800 801 803 805 806 806 807 809 811 812 815 817 818 820 821 822 823 823 823 824 825 826 828 829 830 832 833 834 835 836 836 837 838 840 841 842 842 842 842 842 841 841 841 841 841 841 841 841 842 843 843 845 846 847 849 850 851 852 853